Location: Bismarck
(46.7731°N, 100.8200°W)
Time: 06:29:56
(UTC-06:00)

ISS - Pass Details

Date: 29 November 2017
Orbit: 403 x 407 km, 51.6° (Epoch: 12 December)

Event Time Altitude Azimuth Distance (km) Brightness Sun altitude
Rises 19:39:44 0° 252° (WSW) 2,324 1.2 -27.0°
Reaches altitude 10° 19:41:49 10° 256° (WSW) 1,466 -0.1 -27.4°
Enters shadow 19:43:02 21° 260° (W) 988 -1.2 -27.6°
